This is the latest recevied weather packets stored in our database for station/object KB3FCJ-2. If no packets are shown the sender has not sent any weather packets the latest 10 day(s).
| Time | Temp. | Humidity | Pressure | Rain* | Wind** | Luminosity | Snow |
|---|---|---|---|---|---|---|---|
| 1777680365 | 15° C | 54% | 702.3 hPa | 0 mm | - | - | - |
| 1777679765 | 15.56° C | 52% | 702.3 hPa | 0 mm | - | - | - |
| 1777679165 | 15.56° C | 52% | 702.3 hPa | 0 mm | - | - | - |
| 1777678318 | 16.11° C | 50% | 702.3 hPa | 0 mm | - | - | - |
| 1777677118 | 16.67° C | 48% | 702.3 hPa | 0 mm | - | - | - |
| 1777676518 | 17.22° C | 48% | 702.3 hPa | 0 mm | - | - | - |
| 1777675671 | 17.22° C | 48% | 702.3 hPa | 0 mm | - | - | - |
| 1777675071 | 17.22° C | 48% | 702.3 hPa | 0 mm | - | - | - |
| 1777674474 | 17.22° C | 48% | 702.3 hPa | 0 mm | - | - | - |
| 1777673872 | 17.78° C | 47% | 702.3 hPa | 0 mm | - | - | - |
| 1777673035 | 18.33° C | 46% | 702.3 hPa | 0 mm | - | - | - |
| 1777672435 | 18.33° C | 47% | 702.3 hPa | 0 mm | - | - | - |
| 1777671834 | 18.33° C | 46% | 702.3 hPa | 0 mm | - | - | - |
| 1777671235 | 18.89° C | 45% | 702.3 hPa | 0 mm | - | - | - |
| 1777670386 | 18.89° C | 45% | 702.3 hPa | 0 mm | - | - | - |
| 1777669785 | 17.78° C | 46% | 702.3 hPa | 0 mm | - | - | - |
| 1777669186 | 18.89° C | 44% | 702.3 hPa | 0 mm | - | - | - |
| 1777668585 | 17.78° C | 47% | 702.3 hPa | 0 mm | - | - | - |
| 1777667751 | 18.33° C | 47% | 702.3 hPa | 0 mm | - | - | - |
| 1777667150 | 17.78° C | 45% | 702.3 hPa | 0 mm | - | - | - |
| 1777666551 | 17.78° C | 52% | 702.3 hPa | 0 mm | - | - | - |
| 1777665950 | 17.22° C | 47% | 702.3 hPa | 0 mm | - | - | - |
| 1777665101 | 19.44° C | 48% | 702.3 hPa | 0 mm | - | - | - |
| 1777664502 | 18.33° C | 49% | 702.3 hPa | 0 mm | - | - | - |
| 1777663902 | 17.22° C | 48% | 702.3 hPa | 0 mm | - | - | - |
* Rain latest hour (hover to see other rain measurements)
** Current wind speed in m/s (hover to see current wind gust speed)